Galena, Nevada Weather observations

Data are for 60 minute period ending nearest time listed.
 Day   Time    Ave.   Ave.  Ave.  Vector   Max.   Total    Solar   
  of    of     Air    Rel.  Wind   Wind    Wind  Precip.   Rad.    
Year   Day     Temp.  Hum.  Speed  Dir.    Gust                    
2026   (PST)    F      %     mph   deg.    mph     in.     W/m2    
------------------------------------------------------------------- 
 247   10:00   57.0    53   10.0   183     20.0    2.02     124  
 247   11:00   58.0    53   11.0   181     22.0    2.02     187  
 247   12:00   59.0    50   10.0   194     24.0    2.02     305  
 247   13:00   60.0    48   11.0   181     24.0    2.02     419  
 247   14:00   65.0    41   11.0   187     24.0    2.02     621  
 247   15:00   63.0    42   10.0   176     24.0    2.02     386  
 247   16:00   65.0    38    8.0   217     19.0    2.02     512  
 247   17:00   62.0    39   11.0   235     32.0    2.02     367  
 247   18:00   57.0    47   12.0   232     23.0    2.02     107  
 247   19:00   56.0    51   12.0   219     22.0    2.02       8  
 247   20:00   54.0    50    6.0   160     20.0    2.02       0  
 247   21:00   53.0    56    4.0    24     20.0    2.02       0  
 247   22:00   51.0    62    5.0    17      9.0    2.02       0  
 247   23:00   48.0    63    1.0    46     10.0    2.02       0  
 248    0:00   46.0    66    5.0   344      9.0    2.02       0  
 248    1:00   50.0    62    4.0    54     11.0    2.02       0  
 248    2:00   47.0    69    6.0   356      9.0    2.02       0  
 248    3:00   46.0    70    3.0   311      9.0    2.02       0  
 248    4:00   44.0    72    2.0   275      6.0    2.02       0  
 248    5:00   44.0    70    4.0   311      7.0    2.02       0  
 248    6:00   46.0    70    2.0   320      4.0    2.02       8  
 248    7:00   53.0    58    5.0    35      9.0    2.02     153  
 248    8:00   56.0    55    7.0    53     12.0    2.02     355  
 248    9:00   56.0    53    2.0    57     12.0    2.02     430  

Return to Galena, Nevada graphs page.


Western Regional Climate Center,wrcc@dri.edu